Regional Weather Roundup
Issued by NWS Green Bay, WI

Home | Current Version | Previous Version | Text Only | Print | Product List | Glossary On
Versions: 1 2 3 4 5 6 7 8 9 10 11 12 13 14 15 16 17 18 19 20 21 22 23 24 25 26 27 28 29 30 31 32 33 34 35 36 37 38 39 40 41 42 43 44 45 46 47 48 49 50
000
ASUS43 KGRB 180800
RWRGRB

NORTH-CENTRAL AND NORTHEAST WISCONSIN REGIONAL WEATHER ROUNDUP
NATIONAL WEATHER SERVICE GREEN BAY WI
200 AM CST WED JAN 18 2017

WIZ005-009-010>012-018-019-180900-
NORTH CENTRAL WISCONSIN

CITY           SKY/WX    TMP DP  RH WIND       PRES   REMARKS
IRONWOOD       CLOUDY    31  26  82 SW8       29.84F
MANITOWISH WTR NOT AVBL
ARBOR VITAE    NOT AVBL
EAGLE RIVER    NOT AVBL
LAND O LAKES   NOT AVBL
RHINELANDER    CLOUDY    25  24  96 SW3       29.91S
PHILLIPS       FOG      N/A N/A N/A S5        29.90S VSB 1
ANTIGO         NOT AVBL
TOMAHAWK       NOT AVBL
MERRILL        FOG       23  23  99 CALM        N/A  VSB 1/2
$$

WIZ013-073-180900-
NORTHEAST WISCONSIN

CITY           SKY/WX    TMP DP  RH WIND       PRES   REMARKS
IRON MOUNTAIN  FOG       16  12  84 CALM      29.90R VSB 1/4
MARINETTE      NOT AVBL
$$

WIZ017-030-035>037-045-180900-
CENTRAL WISCONSIN

CITY           SKY/WX    TMP DP  RH WIND       PRES   REMARKS
MEDFORD        NOT AVBL
WAUSAU         FOG       27  27 100 SW7       29.94S VSB 3/4
MOSINEE        NOT AVBL
MARSHFIELD     FOG       29  28  96 W12       29.96R VSB 1/4
WISC RAPIDS    NOT AVBL
STEVENS POINT  NOT AVBL
WAUPACA        NOT AVBL
SHAWANO        NOT AVBL
CLINTONVILLE   FOG       32  32 100 W7        29.96R VSB 1/2
WAUTOMA        CLOUDY    33  32  96 W10       30.00R FOG
$$

WIZ038-039-048-051-180900-
FOX VALLEY

CITY           SKY/WX    TMP DP  RH WIND       PRES   REMARKS
NWS GREEN BAY  FOG       34  34 100 SW6       29.96R VSB 1/4
APPLETON       NOT AVBL
OSHKOSH        FOG       34  32  92 W6        29.97R VSB 1/2
FOND DU LAC    CLOUDY    35  32  88 SW8       29.98S
$$

WIZ022-050-052-180900-
EAST CENTRAL WISCONSIN

CITY           SKY/WX    TMP DP  RH WIND       PRES   REMARKS
EPHRAIM        NOT AVBL
WASHINGTON ISL NOT AVBL
STURGEON BAY   NOT AVBL
MANITOWOC      FOG       34  34 100 W6        29.97S VSB 1
SHEBOYGAN      CLOUDY    34  32  92 W7        29.98R
$$

LMZ563-521-522-541>543-180900-
LAKESHORE

STATION/POSITION TIME  TEMP    WIND        PRES    VSBY  WAVE
                       AIR SEA DIR/SP/G                  HT/PER
                 (UTC) (F)     (DEG/KT/KT) (MB)    (MI)  (FT/S)
SHEBOYGAN LKSHOR 0700   34     300/  7/  8 1015.3R
KEWAUNEE LKSHORE 0730   33     270/  2/  3 1014.0R
ALGOMA MARINA    0723             CALM       N/A
NORTHPORT PIER   0740   33      CALM  /  3 1013.9S
MENOMINEE LKSHOR 0730          190/  5/  6 1013.2R
$$




USA.gov is the U.S. government's official web portal to all federal, state and local government web resources and services.